Вернуться в каталог

STARLINK-34779

АктивенСвязьSSO
NORAD 65058·PAYLOAD·🇺🇸 United States

Запущен Jul 31, 2025 с Vandenberg Space Force Base

Loading…

Ближайшие Пролёты (ближайшие 24 часа)

TLE

СвежийSource: CelesTrak SupGP

Эпоха: Sep 15, 2026, 02:44 UTC

1 65058C 25165C   26258.11437500  .01956800  00000+0  61923-1 0  2585
2 65058  97.2842 329.4428 0001545  83.5187 223.1953 15.31839536    17

Отслеживайте STARLINK-34779 в реальном времени с AllMySat

Download on the App Store